Torna al catalogo

ONEWEB-0167

AttivoComunicazioniPO
NORAD 48064·PAYLOAD·🇬🇧 United Kingdom

Lanciato Mar 25, 2021 da Vostochny Cosmodrome

Loading…

Prossimi Passaggi (prossime 24 ore)

TLE

AggiornatoSource: CelesTrak SupGP

Epoca: Sep 14, 2026, 17:28 UTC

1 48064C 21025Y   26257.72795553 -.00002490  00000+0 -68277-2 0  2572
2 48064  87.8924 302.4157 0001552  78.1638  11.8614 13.13476468    15

Traccia ONEWEB-0167 in tempo reale con AllMySat

Download on the App Store